�N����,����,�~����,�C��,���x,�C��,����,���ϕ���,�ő�u�ԕ���,�ő厞����,���˗�,�I�_���x,�n�����x,�ő啗���N��,DTYPE
"17/03/26","00:10",0.0,4.3,78.3,1012.6,322.2,3.4,4.5,316.9,0.00,0.9,8.4,"00:04:08",1
"17/03/26","00:20",0.0,4.2,79.5,1012.1,325.3,3.7,5.7,328.4,0.00,1.0,8.2,"00:16:48",1
"17/03/26","00:30",0.0,4.1,80.0,1012.1,320.9,3.6,5.2,330.7,0.00,1.0,8.3,"00:25:44",1
"17/03/26","00:40",0.0,4.0,80.9,1011.9,327.3,4.0,5.7,339.7,0.00,1.1,8.3,"00:34:08",1
"17/03/26","00:50",0.0,4.0,81.5,1011.6,329.7,3.9,5.6,325.5,0.00,1.2,8.2,"00:48:40",1
"17/03/26","01:00",0.0,4.1,81.2,1011.6,325.6,4.1,6.2,327.9,0.00,1.2,8.2,"00:57:44",1
"17/03/26","01:10",0.0,4.3,80.5,1011.6,323.8,4.7,5.9,324.3,0.00,1.3,8.2,"01:00:24",1
"17/03/26","01:20",0.0,4.3,79.9,1011.9,324.6,5.0,7.7,339.4,0.00,1.2,8.3,"01:17:28",1
"17/03/26","01:30",0.0,4.3,80.1,1011.4,323.0,4.7,6.8,332.8,0.00,1.2,8.2,"01:20:48",1
"17/03/26","01:40",0.0,4.1,80.7,1011.6,326.0,4.6,7.0,336.0,0.00,1.1,8.2,"01:30:08",1
"17/03/26","01:50",0.0,4.0,81.7,1011.6,323.8,5.0,6.6,316.4,0.00,1.2,8.2,"01:43:20",1
"17/03/26","02:00",0.0,4.1,82.0,1011.4,321.6,5.0,7.1,325.2,0.00,1.3,7.9,"01:51:44",1
"17/03/26","02:10",0.0,4.2,81.7,1011.4,317.6,5.1,6.8,314.8,0.00,1.4,8.0,"02:00:02",1
"17/03/26","02:20",0.0,3.9,81.6,1011.4,324.8,3.6,7.4,325.5,0.00,1.1,7.9,"02:10:08",1
"17/03/26","02:30",0.0,3.8,83.0,1011.4,320.4,3.5,5.2,326.2,0.00,1.2,7.7,"02:28:08",1
"17/03/26","02:40",0.0,3.9,83.1,1011.2,317.3,3.9,5.1,326.7,0.00,1.3,7.7,"02:35:28",1
"17/03/26","02:50",0.0,3.9,83.4,1011.2,319.2,4.4,5.8,319.8,0.00,1.4,8.0,"02:47:12",1
"17/03/26","03:00",0.0,3.8,83.4,1011.4,322.6,4.4,5.5,323.1,0.00,1.3,7.8,"02:59:04",1
"17/03/26","03:10",0.0,3.8,83.4,1011.2,325.6,4.9,7.2,325.7,0.00,1.3,7.9,"03:07:36",1
"17/03/26","03:20",0.0,3.7,83.8,1010.7,323.3,4.5,6.3,321.2,0.00,1.3,7.7,"03:15:28",1
"17/03/26","03:30",0.0,3.7,84.3,1010.7,322.7,4.1,6.6,331.7,0.00,1.3,7.6,"03:29:36",1
"17/03/26","03:40",0.0,3.8,84.0,1010.9,316.8,4.7,6.7,322.5,0.00,1.4,7.7,"03:32:00",1
"17/03/26","03:50",0.0,3.7,83.9,1010.9,303.1,3.2,5.4,328.0,0.00,1.3,7.4,"03:44:48",1
"17/03/26","04:00",0.0,3.6,84.4,1010.7,311.1,3.6,6.5,319.9,0.00,1.3,7.6,"03:57:04",1
"17/03/26","04:10",0.0,3.5,84.5,1010.7,323.4,3.5,5.7,323.6,0.00,1.2,7.5,"04:09:02",1
"17/03/26","04:20",0.0,3.5,84.8,1010.9,319.5,3.9,5.1,329.4,0.00,1.2,7.7,"04:15:12",1
"17/03/26","04:30",0.0,3.4,85.3,1010.7,325.2,3.4,5.0,323.7,0.00,1.2,7.6,"04:21:20",1
"17/03/26","04:40",0.0,3.4,86.0,1010.4,326.8,3.9,5.4,324.7,0.00,1.3,7.5,"04:36:32",1
"17/03/26","04:50",0.0,3.4,86.0,1010.4,327.5,3.7,5.5,319.5,0.00,1.3,7.6,"04:40:40",1
"17/03/26","05:00",0.0,3.4,85.8,1010.4,325.0,4.2,6.3,326.1,0.00,1.3,7.5,"04:51:20",1
"17/03/26","05:10",0.0,3.4,87.1,1010.4,315.2,4.2,5.7,323.9,0.00,1.5,7.5,"05:07:12",1
"17/03/26","05:20",0.0,3.5,86.9,1010.4,315.3,4.0,5.8,352.2,0.00,1.6,7.2,"05:19:12",1
"17/03/26","05:30",0.0,3.5,86.8,1010.4,319.7,4.6,5.6,319.3,0.00,1.6,7.3,"05:22:08",1
"17/03/26","05:40",0.0,3.5,86.6,1010.4,326.8,4.5,7.0,319.8,0.00,1.5,7.1,"05:36:40",1
"17/03/26","05:50",0.0,3.5,86.8,1010.7,326.5,3.6,5.2,322.3,0.00,1.6,7.4,"05:45:12",1
"17/03/26","06:00",0.0,3.6,86.8,1010.4,322.1,3.2,4.8,332.5,0.00,1.6,7.2,"05:56:32",1
"17/03/26","06:10",0.0,3.8,86.1,1010.2,320.6,3.9,5.6,322.9,0.00,1.7,7.4,"06:00:24",1
"17/03/26","06:20",0.0,4.0,85.4,1010.4,316.2,4.7,7.2,315.8,0.00,1.8,7.3,"06:19:36",1
"17/03/26","06:30",0.0,3.8,85.1,1010.7,316.0,5.4,7.2,316.7,0.00,1.6,7.2,"06:20:24",1
"17/03/26","06:40",0.0,3.8,85.8,1010.7,312.5,4.1,5.6,324.8,0.00,1.7,7.3,"06:33:36",1
"17/03/26","06:50",0.0,3.9,85.8,1010.9,322.3,5.0,6.7,326.4,0.00,1.8,7.2,"06:43:36",1
"17/03/26","07:00",0.0,4.0,85.4,1010.9,317.1,4.4,6.3,318.4,0.01,1.8,7.2,"06:55:04",1
"17/03/26","07:10",0.0,4.2,85.2,1010.9,323.9,4.2,7.7,327.5,0.01,2.0,7.2,"07:08:16",1
"17/03/26","07:20",0.0,4.2,84.6,1011.2,320.4,4.6,6.4,327.4,0.01,1.9,7.3,"07:14:48",1
"17/03/26","07:30",0.0,4.3,84.4,1011.2,320.2,4.9,6.4,322.4,0.02,1.9,7.4,"07:25:12",1
"17/03/26","07:40",0.0,4.4,84.4,1010.9,319.9,4.2,5.8,319.4,0.01,2.0,7.5,"07:31:36",1
"17/03/26","07:50",0.0,4.5,84.3,1010.7,318.3,4.7,7.8,337.0,0.03,2.1,7.2,"07:40:24",1
"17/03/26","08:00",0.0,4.9,83.5,1010.7,320.4,4.6,6.6,331.6,0.08,2.4,7.4,"07:54:48",1
"17/03/26","08:10",0.0,5.3,82.6,1010.9,309.9,4.0,6.0,326.2,0.10,2.6,7.5,"08:00:40",1
"17/03/26","08:20",0.0,5.6,81.3,1010.7,303.9,4.2,6.2,322.0,0.08,2.7,7.4,"08:12:24",1
"17/03/26","08:30",0.0,6.1,80.4,1011.2,312.5,4.2,6.2,318.8,0.10,3.0,7.5,"08:28:00",1
"17/03/26","08:40",0.0,6.9,78.8,1010.9,300.2,3.5,5.2,314.7,0.16,3.5,7.7,"08:32:40",1
"17/03/26","08:50",0.0,7.4,76.3,1010.9,308.6,3.5,5.2,321.3,0.20,3.5,7.7,"08:46:48",1
"17/03/26","09:00",0.0,7.6,75.9,1010.7,282.1,2.6,3.7,310.6,0.16,3.7,7.9,"08:57:04",1
"17/03/26","09:10",0.0,8.1,74.3,1011.4,296.7,2.5,4.8,327.8,0.14,3.8,8.1,"09:06:56",1
"17/03/26","09:20",0.0,8.5,73.2,1011.2,296.5,2.7,4.0,331.6,0.20,4.0,8.0,"09:16:00",1
"17/03/26","09:30",0.0,8.8,72.3,1011.2,282.6,2.3,4.1,277.0,0.18,4.1,8.1,"09:24:48",1
"17/03/26","09:40",0.0,8.8,71.8,1011.4,287.1,2.5,3.9,306.0,0.15,4.0,8.3,"09:35:52",1
"17/03/26","09:50",0.0,8.9,70.8,1011.6,306.9,2.8,4.0,333.3,0.16,3.9,8.3,"09:40:40",1
"17/03/26","10:00",0.0,9.5,71.8,1011.2,310.9,2.5,3.4,330.5,0.16,4.7,8.7,"09:53:28",1
"17/03/26","10:10",0.0,9.8,69.5,1011.2,285.0,2.3,5.0,299.0,0.17,4.5,8.7,"10:08:16",1
"17/03/26","10:20",0.0,10.0,68.9,1011.2,281.7,2.5,3.6,323.9,0.21,4.6,8.7,"10:13:36",1
"17/03/26","10:30",0.0,10.4,68.6,1010.9,267.9,2.1,3.6,253.4,0.22,4.9,8.8,"10:21:04",1
"17/03/26","10:40",0.0,11.6,68.3,1011.4,271.3,1.8,3.1,258.4,0.31,6.0,8.9,"10:33:36",1
"17/03/26","10:50",0.0,12.0,64.5,1010.9,281.2,1.7,4.0,311.7,0.41,5.6,9.3,"10:43:12",1
"17/03/26","11:00",0.0,12.1,65.5,1011.2,245.6,1.6,3.3,225.5,0.36,5.9,9.5,"10:56:32",1
"17/03/26","11:10",0.0,12.6,65.2,1010.7,293.9,1.3,3.2,317.2,0.44,6.3,9.5,"11:07:04",1
"17/03/26","11:20",0.0,12.6,62.4,1010.7,275.8,1.1,3.5,125.4,0.40,5.7,9.9,"11:17:12",1
"17/03/26","11:30",0.0,12.6,63.4,1010.7,158.7,1.5,3.3,153.9,0.39,5.9,10.2,"11:27:12",1
"17/03/26","11:40",0.0,12.6,63.6,1009.7,138.1,1.3,3.2,80.3,0.35,5.9,10.3,"11:31:36",1
"17/03/26","11:50",0.0,12.4,66.2,1010.0,144.4,2.1,3.9,115.4,0.21,6.3,10.5,"11:49:28",1
"17/03/26","12:00",0.0,12.1,65.9,1010.0,147.4,1.2,2.9,154.2,0.17,6.0,10.7,"11:51:04",1
"17/03/26","12:10",0.0,12.1,65.9,1010.2,78.8,1.2,2.8,115.2,0.12,6.0,10.7,"12:09:44",1
"17/03/26","12:20",0.0,12.0,66.2,1009.5,125.4,1.3,2.2,130.7,0.11,5.9,10.7,"12:14:56",1
"17/03/26","12:30",0.0,12.2,66.1,1009.5,119.5,1.3,3.3,128.4,0.17,6.1,10.7,"12:22:08",1
"17/03/26","12:40",0.0,12.7,65.4,1009.3,144.4,1.1,3.1,174.1,0.23,6.4,10.8,"12:37:04",1
"17/03/26","12:50",0.0,12.6,65.3,1009.7,131.2,1.6,3.1,104.6,0.23,6.3,10.8,"12:47:28",1
"17/03/26","13:00",0.0,12.5,64.9,1008.8,73.3,1.1,2.4,15.3,0.15,6.1,10.7,"12:56:32",1
"17/03/26","13:10",0.0,12.7,65.7,1009.0,150.5,1.2,2.7,117.2,0.21,6.5,10.9,"13:01:04",1
"17/03/26","13:20",0.0,12.8,65.9,1008.8,71.1,1.5,4.2,108.7,0.18,6.6,11.0,"13:13:12",1
"17/03/26","13:30",0.0,12.6,65.4,1008.3,93.5,1.8,3.2,105.7,0.13,6.3,11.1,"13:20:24",1
"17/03/26","13:40",0.0,12.6,65.3,1008.6,50.7,1.0,2.5,84.8,0.13,6.3,11.1,"13:38:16",1
"17/03/26","13:50",0.0,12.6,67.1,1008.3,79.7,1.1,2.6,108.7,0.12,6.7,11.2,"13:42:08",1
"17/03/26","14:00",0.0,12.6,65.0,1008.1,96.2,1.3,2.7,102.4,0.11,6.2,11.1,"13:53:12",1
"17/03/26","14:10",0.0,12.7,65.7,1008.1,67.5,1.2,3.1,118.5,0.09,6.5,11.2,"14:07:20",1
"17/03/26","14:20",0.0,12.4,65.5,1008.1,120.7,1.6,3.3,125.2,0.10,6.2,11.1,"14:11:36",1
"17/03/26","14:30",0.0,12.6,66.4,1008.1,114.1,1.5,3.4,120.1,0.13,6.6,11.2,"14:24:56",1
"17/03/26","14:40",0.0,12.5,66.8,1007.8,90.4,1.1,2.9,120.7,0.08,6.5,11.1,"14:32:16",1
"17/03/26","14:50",0.0,12.2,69.7,1007.4,124.7,1.6,3.4,106.1,0.11,6.9,11.1,"14:47:52",1
"17/03/26","15:00",0.0,12.2,70.2,1008.1,104.4,1.3,2.9,116.5,0.15,7.0,11.1,"14:56:56",1
"17/03/26","15:10",0.0,12.1,69.5,1007.6,108.4,1.6,3.2,120.3,0.14,6.7,11.0,"15:05:28",1
"17/03/26","15:20",0.0,12.1,69.4,1007.6,114.3,1.6,3.2,121.4,0.08,6.7,11.0,"15:15:28",1
"17/03/26","15:30",0.0,12.0,69.6,1007.8,112.6,1.1,2.6,111.4,0.06,6.7,11.0,"15:24:48",1
"17/03/26","15:40",0.0,11.9,71.5,1007.6,35.5,0.8,1.9,350.8,0.06,7.0,11.1,"15:33:12",1
"17/03/26","15:50",0.0,11.8,73.0,1008.1,0.1,0.8,1.8,19.3,0.07,7.2,11.2,"15:49:12",1
"17/03/26","16:00",0.0,11.7,73.8,1007.8,342.7,0.8,1.8,345.0,0.03,7.2,10.9,"15:53:44",1
"17/03/26","16:10",0.0,11.4,75.5,1007.8,359.8,0.7,1.6,324.5,0.02,7.3,10.9,"16:02:56",1
"17/03/26","16:20",0.2,11.1,77.9,1007.6,322.8,1.0,2.1,338.2,0.01,7.4,10.8,"16:14:24",1
"17/03/26","16:30",0.0,10.8,79.8,1008.1,328.3,0.6,1.4,340.1,0.00,7.5,10.8,"16:24:08",1
"17/03/26","16:40",0.2,10.5,81.7,1007.8,77.7,0.6,1.7,119.0,0.00,7.5,10.7,"16:31:44",1
"17/03/26","16:50",0.2,10.2,82.7,1007.8,4.2,0.6,1.3,81.6,0.00,7.4,10.8,"16:46:16",1
"17/03/26","17:00",0.2,10.1,83.7,1008.1,345.5,0.3,1.2,332.1,0.00,7.5,10.8,"16:53:28",1
"17/03/26","17:10",0.4,9.9,84.9,1007.6,353.0,0.5,1.1,323.3,0.00,7.5,10.7,"17:09:28",1
"17/03/26","17:20",0.2,9.8,86.1,1007.8,317.0,0.3,1.1,342.7,0.00,7.6,10.5,"17:19:20",1
"17/03/26","17:30",0.2,9.6,87.4,1007.8,336.3,1.2,1.9,12.4,0.00,7.7,10.6,"17:29:44",1
"17/03/26","17:40",0.4,9.5,88.9,1008.3,343.1,1.1,1.7,3.4,0.00,7.8,10.6,"17:35:04",1
"17/03/26","17:50",0.0,9.3,90.2,1008.1,327.0,0.8,1.3,329.1,0.00,7.8,10.4,"17:48:48",1
"17/03/26","18:00",0.2,9.2,91.1,1008.1,349.5,0.8,1.3,335.1,0.00,7.9,10.2,"17:52:40",1
"17/03/26","18:10",0.2,9.2,91.9,1008.1,312.0,0.8,1.3,314.2,0.00,8.0,10.4,"18:05:36",1
"17/03/26","18:20",0.2,9.0,92.0,1007.8,309.7,0.8,1.6,324.0,0.00,7.8,10.5,"18:19:52",1
"17/03/26","18:30",0.2,8.7,91.8,1008.6,329.4,1.2,2.8,341.1,0.00,7.5,10.2,"18:29:12",1
"17/03/26","18:40",0.0,8.5,91.9,1008.6,319.5,1.5,2.7,346.4,0.00,7.3,10.3,"18:32:56",1
"17/03/26","18:50",0.2,8.4,92.0,1008.1,305.5,1.6,2.6,308.3,0.00,7.2,10.2,"18:40:16",1
"17/03/26","19:00",0.0,8.3,91.9,1008.3,301.5,1.0,1.9,307.6,0.00,7.1,10.1,"18:50:08",1
"17/03/26","19:10",0.2,8.2,92.0,1008.8,300.2,1.6,2.6,329.2,0.00,7.0,9.9,"19:01:44",1
"17/03/26","19:20",0.2,8.1,91.8,1008.6,305.1,2.6,4.5,334.9,0.00,6.9,9.8,"19:18:08",1
"17/03/26","19:30",0.2,8.2,90.9,1008.6,315.0,3.0,4.5,323.6,0.00,6.8,10.0,"19:20:16",1
"17/03/26","19:40",0.0,8.1,90.7,1008.8,317.2,3.4,5.1,322.2,0.00,6.7,10.0,"19:37:14",1
"17/03/26","19:50",0.2,8.0,90.8,1008.6,329.9,2.3,3.7,329.0,0.00,6.6,9.9,"19:44:08",1
"17/03/26","20:00",0.2,7.9,91.2,1008.8,311.5,1.3,3.6,310.1,0.00,6.6,9.7,"19:55:04",1
"17/03/26","20:10",0.0,7.8,91.5,1008.6,319.6,1.6,2.6,337.2,0.00,6.5,9.7,"20:06:48",1
"17/03/26","20:20",0.2,7.7,91.8,1008.6,315.8,1.2,2.9,326.6,0.00,6.5,9.8,"20:17:20",1
"17/03/26","20:30",0.0,7.6,91.8,1008.6,298.7,1.3,2.5,303.3,0.00,6.4,9.7,"20:24:16",1
"17/03/26","20:40",0.0,7.5,91.9,1008.6,295.1,1.3,3.4,332.0,0.00,6.3,9.6,"20:39:28",1
"17/03/26","20:50",0.2,7.5,92.0,1008.3,303.3,1.6,2.6,284.8,0.00,6.3,9.6,"20:41:20",1
"17/03/26","21:00",0.2,7.4,92.3,1008.8,300.6,1.5,2.9,310.3,0.00,6.3,9.6,"20:53:52",1
"17/03/26","21:10",0.4,7.3,92.6,1008.6,306.0,1.1,2.1,304.4,0.00,6.2,9.5,"21:02:24",1
"17/03/26","21:20",0.2,7.3,92.7,1008.6,305.3,0.6,1.6,335.3,0.00,6.2,9.5,"21:12:16",1
"17/03/26","21:30",0.2,7.3,92.7,1008.8,318.8,1.0,1.6,346.6,0.00,6.2,9.4,"21:20:32",1
"17/03/26","21:40",0.2,7.2,93.1,1008.6,269.7,0.6,1.2,254.2,0.00,6.2,9.6,"21:31:04",1
"17/03/26","21:50",0.2,7.1,93.4,1008.8,259.9,0.8,1.6,247.8,0.00,6.1,9.3,"21:47:28",1
"17/03/26","22:00",0.2,7.0,93.6,1008.8,288.8,1.2,1.8,338.4,0.00,6.1,9.5,"21:57:28",1
"17/03/26","22:10",0.2,7.0,93.8,1008.3,337.8,0.6,1.9,333.1,0.00,6.1,9.4,"22:00:02",1
"17/03/26","22:20",0.2,7.0,93.9,1008.3,308.5,2.1,2.9,310.5,0.00,6.1,9.3,"22:12:32",1
"17/03/26","22:30",0.2,7.0,94.1,1008.3,322.3,2.1,3.3,322.2,0.00,6.2,9.2,"22:29:36",1
"17/03/26","22:40",0.0,7.0,94.3,1008.1,312.0,2.0,3.5,335.2,0.00,6.2,9.2,"22:33:20",1
"17/03/26","22:50",0.0,6.9,94.5,1008.6,296.6,1.3,2.6,321.0,0.00,6.1,9.2,"22:48:56",1
"17/03/26","23:00",0.0,6.8,94.7,1007.8,331.7,1.5,2.9,327.4,0.00,6.1,9.3,"22:50:40",1
"17/03/26","23:10",0.0,6.8,94.9,1007.8,309.1,1.1,1.6,336.7,0.00,6.1,9.2,"23:03:12",1
"17/03/26","23:20",0.0,6.7,95.0,1007.6,301.0,1.0,2.4,311.4,0.00,6.0,9.1,"23:13:04",1
"17/03/26","23:30",0.0,6.7,94.9,1007.6,282.9,1.0,2.4,301.8,0.00,6.0,9.0,"23:27:36",1
"17/03/26","23:40",0.0,6.7,95.0,1007.4,306.0,2.3,3.2,324.9,0.00,6.0,9.1,"23:36:24",1
"17/03/26","23:50",0.0,6.7,95.0,1007.4,324.9,2.5,3.5,334.5,0.00,6.0,9.3,"23:43:46",1
"17/03/26","24:00",0.0,6.7,94.8,1007.4,320.3,2.6,3.6,326.8,0.00,6.0,9.0,"23:55:06",1
